Tracking 27122 objects as of 25-Mar-2023
HD Live streaming from Space Station
objects crossing your sky now

RESURS O1 DEB

Track RESURS O1 DEB now!
10-day predictions


NORAD ID: 46898
Int'l Code: 1994-074CE
Perigee: 505.9 km
Apogee: 509.9 km
Inclination: 97.9 °
Period: 94.6 minutes
Semi major axis: 6878 km
RCS: Unknown
Launch date: November 4, 1994
Source: Commonwealth of Independent States (former USSR) (CIS)
Launch site: TYURATAM MISSILE AND SPACE COMPLEX (TTMTR)

Note: This is SATELLITE DEBRIS
Your satellite tracking list
Your tracking list is empty




NASA's NSSDC Master Catalog

Two Line Element Set (TLE):
1 46898U 94074CE  23083.68089515  .00403058  00000-0  16877-1 0  9997
2 46898  97.8543 145.1940 0002852 257.8447 102.2469 15.21684027129609
Source of the keplerian elements: AFSPC